Location: Koslow
(50.3020°N, 18.5663°E)
Time: 03:52:47
(UTC+00:00)

Spot 4 Rocket - Pass Details

Date: 07 June 2020
Orbit: 776 x 782 km, 98.7° (Epoch: 04 July)

Event Time Altitude Azimuth Distance (km) Brightness Sun altitude
Rises 01:42:55 0° 17° (NNE) 3,270 8.7 -7.0°
Reaches altitude 10° 01:45:16 10° 21° (NNE) 2,338 7.9 -6.7°
Maximum altitude 01:50:23 63° 102° (ESE) 868 4.5 -6.2°
Drops below altitude 10° 01:55:27 10° 184° (S) 2,320 6.0 -5.6°
Sets 01:57:47 0° 187° (S) 3,243 6.8 -5.4°
